Location: Aucun
(42.9667°N, 0.1667°W)
Time: 04:48:41
(UTC+00:00)

Cosmos 2221 - Pass Details

Date: 17 February 2020
Orbit: 593 x 615 km, 82.5° (Epoch: 31 March)

Event Time Altitude Azimuth Distance (km) Brightness Sun altitude
Rises 05:51:02 0° 211° (SSW) 2,820 5.7 -12.6°
Reaches altitude 10° 05:53:25 10° 222° (SW) 1,926 4.7 -12.1°
Maximum altitude 05:57:12 30° 285° (WNW) 1,070 3.2 -11.4°
Drops below altitude 10° 06:01:01 10° 348° (NNW) 1,948 4.9 -10.7°
Sets 06:03:28 0° 359° (N) 2,860 5.9 -10.3°
